When you browse on this site, cookies collect data to enhance your experience and personalize the content and advertising you see.
Visit our Privacy Policy to learn more. By continuing to use the site, you agree to this use of cookies and data.
  • Em Portugal
  • Lista de países
  • Para 7 dias
  • Temperatura da água
  • Mapas de satélite
  • Mapa do tempo
  • Widgets de tempo
  • user-avatar
    Iniciar Sessão

    Previsão horária em Bruxelas

    Hoje, 26 Maio, Domingo

    Tempo Temperatura Precipitação Vento Pressão Humidade
    00:00 +10°C° 0 mm 2 m/s 760 mmHg 84%
    01:00 +10°C° 0 mm 2 m/s 759 mmHg 87%
    02:00 +10°C° 0 mm 3 m/s 759 mmHg 90%
    03:00 +10°C° 0 mm 3 m/s 759 mmHg 93%
    04:00 +11°C° 0 mm 4 m/s 759 mmHg 92%
    05:00 +12°C° 0 mm 4 m/s 758 mmHg 91%
    06:00 +13°C° 0 mm 5 m/s 758 mmHg 90%
    07:00 +14°C° 0 mm 5 m/s 758 mmHg 85%
    08:00 +16°C° 0 mm 5 m/s 758 mmHg 80%
    09:00 +19°C° 0 mm 5 m/s 758 mmHg 75%
    10:00 +20°C° 0.1 mm 6 m/s 758 mmHg 72%
    11:00 +21°C° 0.1 mm 6 m/s 757 mmHg 68%
    12:00 +22°C° 0.1 mm 6 m/s 757 mmHg 64%
    13:00 +21°C° 0.1 mm 7 m/s 757 mmHg 66%
    14:00 +21°C° 0.1 mm 7 m/s 756 mmHg 67%
    15:00 +21°C° 0.1 mm 7 m/s 756 mmHg 69%
    16:00 +20°C° 0 mm 7 m/s 756 mmHg 73%
    17:00 +19°C° 0 mm 6 m/s 755 mmHg 76%
    18:00 +17°C° 0 mm 6 m/s 755 mmHg 79%
    19:00 +16°C° 0 mm 6 m/s 755 mmHg 81%
    20:00 +16°C° 0 mm 6 m/s 755 mmHg 83%
    21:00 +15°C° 0 mm 5 m/s 755 mmHg 85%
    22:00 +15°C° 0.3 mm 5 m/s 755 mmHg 88%
    23:00 +15°C° 0.3 mm 5 m/s 755 mmHg 91%

    Amanhã, 27 Maio, Segunda-feira

    Tempo Temperatura Precipitação Vento Pressão Humidade
    00:00 +14°C° 0.3 mm 4 m/s 755 mmHg 94%
    01:00 +14°C° 0.3 mm 4 m/s 755 mmHg 93%
    02:00 +14°C° 0.3 mm 4 m/s 754 mmHg 92%
    03:00 +13°C° 0.3 mm 3 m/s 754 mmHg 91%
    04:00 +13°C° 0 mm 3 m/s 755 mmHg 89%
    05:00 +13°C° 0 mm 3 m/s 755 mmHg 87%
    06:00 +13°C° 0 mm 3 m/s 755 mmHg 85%
    07:00 +14°C° 0 mm 3 m/s 755 mmHg 79%
    08:00 +16°C° 0 mm 3 m/s 755 mmHg 73%
    09:00 +16°C° 0 mm 3 m/s 756 mmHg 67%
    10:00 +17°C° 0 mm 4 m/s 755 mmHg 64%
    11:00 +17°C° 0 mm 4 m/s 755 mmHg 61%
    12:00 +17°C° 0 mm 4 m/s 755 mmHg 59%
    13:00 +17°C° 0 mm 4 m/s 755 mmHg 59%
    14:00 +17°C° 0 mm 3 m/s 755 mmHg 59%
    15:00 +17°C° 0 mm 3 m/s 755 mmHg 59%
    16:00 +17°C° 0 mm 3 m/s 754 mmHg 61%
    17:00 +17°C° 0 mm 2 m/s 754 mmHg 63%
    18:00 +18°C° 0 mm 1 m/s 754 mmHg 65%
    19:00 +15°C° 0.1 mm 2 m/s 754 mmHg 70%
    20:00 +14°C° 0.1 mm 2 m/s 754 mmHg 76%
    21:00 +12°C° 0.1 mm 2 m/s 754 mmHg 81%
    22:00 +11°C° 0 mm 3 m/s 754 mmHg 83%
    23:00 +10°C° 0 mm 3 m/s 754 mmHg 86%

    Depois de amanhã, 28 Maio, Terça-feira

    Tempo Temperatura Precipitação Vento Pressão Humidade
    00:00 +10°C° 0 mm 3 m/s 753 mmHg 88%
    01:00 +10°C° 0 mm 3 m/s 753 mmHg 90%
    02:00 +10°C° 0 mm 4 m/s 753 mmHg 91%
    03:00 +8°C° 0 mm 4 m/s 752 mmHg 92%
    04:00 +10°C° 0 mm 4 m/s 752 mmHg 90%
    05:00 +11°C° 0 mm 4 m/s 752 mmHg 88%
    06:00 +11°C° 0 mm 4 m/s 752 mmHg 86%
    07:00 +12°C° 0.5 mm 4 m/s 752 mmHg 81%
    08:00 +13°C° 0.5 mm 5 m/s 752 mmHg 77%
    09:00 +15°C° 0.5 mm 5 m/s 752 mmHg 72%
    10:00 +15°C° 1 mm 4 m/s 752 mmHg 70%
    11:00 +15°C° 1 mm 4 m/s 752 mmHg 69%
    12:00 +17°C° 1 mm 3 m/s 752 mmHg 67%
    13:00 +17°C° 0.5 mm 4 m/s 752 mmHg 66%
    14:00 +17°C° 0.5 mm 4 m/s 752 mmHg 66%
    15:00 +17°C° 0.5 mm 4 m/s 753 mmHg 65%
    16:00 +17°C° 0.3 mm 4 m/s 753 mmHg 68%
    17:00 +15°C° 0.3 mm 4 m/s 753 mmHg 70%
    18:00 +14°C° 0.3 mm 4 m/s 754 mmHg 73%
    19:00 +13°C° 0 mm 3 m/s 754 mmHg 78%
    20:00 +11°C° 0 mm 3 m/s 755 mmHg 83%
    21:00 +10°C° 0 mm 3 m/s 756 mmHg 89%
    22:00 +9°C° 0 mm 3 m/s 756 mmHg 90%
    23:00 +9°C° 0 mm 3 m/s 757 mmHg 92%

    29 Maio, Quarta-feira

    Tempo Temperatura Precipitação Vento Pressão Humidade
    00:00 +9°C° 0 mm 2 m/s 757 mmHg 94%
    01:00 +9°C° 0 mm 3 m/s 757 mmHg 92%
    02:00 +9°C° 0 mm 3 m/s 758 mmHg 91%
    03:00 +9°C° 0 mm 3 m/s 758 mmHg 89%
    04:00 +9°C° 0 mm 3 m/s 758 mmHg 86%
    05:00 +9°C° 0 mm 3 m/s 759 mmHg 83%
    06:00 +9°C° 0 mm 3 m/s 759 mmHg 80%
    07:00 +11°C° 0 mm 3 m/s 760 mmHg 74%
    08:00 +13°C° 0 mm 2 m/s 760 mmHg 67%
    09:00 +14°C° 0 mm 2 m/s 761 mmHg 61%
    10:00 +15°C° 0 mm 2 m/s 761 mmHg 56%
    11:00 +16°C° 0 mm 1 m/s 761 mmHg 52%
    12:00 +18°C° 0 mm 1 m/s 761 mmHg 48%
    13:00 +18°C° 0 mm 1 m/s 761 mmHg 50%
    14:00 +17°C° 0 mm 2 m/s 761 mmHg 52%
    15:00 +17°C° 0 mm 2 m/s 761 mmHg 53%
    16:00 +17°C° 0.1 mm 2 m/s 761 mmHg 57%
    17:00 +16°C° 0.1 mm 2 m/s 761 mmHg 61%
    18:00 +16°C° 0.1 mm 2 m/s 761 mmHg 65%
    19:00 +14°C° 0 mm 1 m/s 761 mmHg 69%
    20:00 +12°C° 0 mm 0 m/s 762 mmHg 73%
    21:00 +10°C° 0 mm 0 m/s 762 mmHg 77%
    22:00 +11°C° 0 mm 1 m/s 762 mmHg 78%
    23:00 +11°C° 0 mm 1 m/s 762 mmHg 80%

    30 Maio, Quinta-feira

    Tempo Temperatura Precipitação Vento Pressão Humidade
    00:00 +10°C° 0 mm 2 m/s 762 mmHg 81%
    01:00 +9°C° 0 mm 2 m/s 762 mmHg 83%
    02:00 +9°C° 0 mm 3 m/s 762 mmHg 86%
    03:00 +9°C° 0 mm 3 m/s 762 mmHg 88%
    04:00 +10°C° 0 mm 3 m/s 762 mmHg 87%
    05:00 +10°C° 0 mm 3 m/s 762 mmHg 87%
    06:00 +11°C° 0 mm 4 m/s 762 mmHg 86%
    07:00 +12°C° 0 mm 4 m/s 763 mmHg 84%
    08:00 +13°C° 0 mm 4 m/s 763 mmHg 81%
    09:00 +13°C° 0 mm 5 m/s 763 mmHg 79%
    10:00 +14°C° 0 mm 5 m/s 763 mmHg 76%
    11:00 +15°C° 0 mm 5 m/s 763 mmHg 73%
    12:00 +16°C° 0 mm 5 m/s 763 mmHg 69%
    13:00 +16°C° 0.1 mm 5 m/s 763 mmHg 71%
    14:00 +16°C° 0.1 mm 5 m/s 763 mmHg 74%
    15:00 +17°C° 0.1 mm 4 m/s 763 mmHg 76%
    16:00 +17°C° 0.2 mm 3 m/s 763 mmHg 78%
    17:00 +17°C° 0.2 mm 3 m/s 764 mmHg 81%
    18:00 +17°C° 0.2 mm 2 m/s 764 mmHg 84%
    19:00 +16°C° 0.3 mm 2 m/s 764 mmHg 86%
    20:00 +15°C° 0.3 mm 1 m/s 764 mmHg 88%
    21:00 +14°C° 0.3 mm 1 m/s 765 mmHg 90%
    22:00 +14°C° 0.4 mm 1 m/s 765 mmHg 91%
    23:00 +14°C° 0.4 mm 1 m/s 765 mmHg 92%

    31 Maio, Sexta-feira

    Tempo Temperatura Precipitação Vento Pressão Humidade
    00:00 +13°C° 0.4 mm 1 m/s 765 mmHg 93%
    01:00 +14°C° 0.3 mm 2 m/s 765 mmHg 94%
    02:00 +14°C° 0.3 mm 2 m/s 765 mmHg 95%
    03:00 +13°C° 0.3 mm 3 m/s 765 mmHg 96%
    04:00 +13°C° 0 mm 4 m/s 765 mmHg 95%
    05:00 +13°C° 0 mm 4 m/s 765 mmHg 95%
    06:00 +14°C° 0 mm 4 m/s 765 mmHg 95%
    07:00 +14°C° 0 mm 4 m/s 765 mmHg 93%
    08:00 +15°C° 0 mm 5 m/s 765 mmHg 92%
    09:00 +15°C° 0 mm 5 m/s 765 mmHg 91%
    10:00 +16°C° 0.1 mm 5 m/s 765 mmHg 89%
    11:00 +17°C° 0.1 mm 5 m/s 765 mmHg 86%
    12:00 +17°C° 0.1 mm 6 m/s 765 mmHg 84%
    13:00 +19°C° 0 mm 6 m/s 765 mmHg 80%
    14:00 +20°C° 0 mm 6 m/s 765 mmHg 76%
    15:00 +21°C° 0 mm 6 m/s 765 mmHg 72%
    16:00 +20°C° 0 mm 6 m/s 765 mmHg 73%
    17:00 +20°C° 0 mm 5 m/s 765 mmHg 74%
    18:00 +20°C° 0 mm 5 m/s 765 mmHg 76%
    19:00 +18°C° 0 mm 4 m/s 766 mmHg 81%
    20:00 +17°C° 0 mm 4 m/s 766 mmHg 86%
    21:00 +14°C° 0 mm 4 m/s 767 mmHg 92%
    22:00 +14°C° 0 mm 4 m/s 767 mmHg 91%
    23:00 +14°C° 0 mm 4 m/s 767 mmHg 91%
    Mostrar mais